Miscellaneous Local Product
Issued by NWS North Platte, NE

Home | Current Version | Previous Version | Text Only | Print | Product List | Glossary On
Versions: 1 2 3 4 5 6 7 8 9 10 11 12 13 14 15 16 17 18 19 20 21 22 23 24 25 26 27 28 29 30 31 32 33 34 35 36 37 38 39 40 41 42 43 44 45 46 47 48 49 50
000
AXUS43 KLBF 300510
MISLBF


WESTERN AND NORTH CENTRAL NEBRASKA HOURLY WEATHER ROUNDUP
NATIONAL WEATHER SERVICE NORTH PLATTE NE
1200 AM CDT TUE JUN 30 2015

***STATIONS NOT REPORTING VARIABLES SUCH AS SKY/WEATHER OR
PRESSURE ARE PROVIDED BY THE NEBRASKA DEPARTMENT OF
ROADS...RAWS...AND APRS NETWORKS...AND ARE NOT UNDER
NATIONAL WEATHER SERVICE QUALITY CONTROL***

...OBSERVATIONS IN AND NEAR THE EASTERN PANHANDLE OF NEBRASKA...

CITY           SKY/WX    TMP DP  RH WIND       PRES   REMARKS
PINE RIDGE     CLEAR     63  59  87 CALM      30.07R
CHADRON        PTCLDY    64  60  87 SW7       30.07R
ALLIANCE       PTCLDY    61  58  90 W3        30.11R
SIDNEY           N/A     64  59  83 CALM      30.15S
WHITECLAY        N/A     63  59  87 SE5         N/A
CRESCENT LAKE    N/A     72  57  59 CALM        N/A
$$

...OBSERVATIONS IN NORTH CENTRAL NEBRASKA...

CITY           SKY/WX    TMP DP  RH WIND       PRES   REMARKS
VALENTINE      CLEAR     65  61  87 SW7       30.02R
THEDFORD       CLEAR     69  61  76 CALM      30.06R
AINSWORTH      CLEAR     71  61  71 SW7       30.02S
O`NEILL        CLEAR     69  63  79 SW5       29.98S
ORD            CLEAR     64  59  83 CALM      29.98S
BROKEN BOW     CLEAR     65  61  87 CALM      30.02S
SPRINGVIEW       N/A     64  59  84 CALM        N/A
HALSEY           N/A     72  57  58 CALM        N/A
BREWSTER         N/A     71  64  76 CALM        N/A
ROSE             N/A     89  71  54 CALM        N/A  HX  94
NEWPORT          N/A     65  62  90 CALM        N/A
SARGENT          N/A     66  62  88 CALM        N/A
CHAMBERS         N/A     70  62  74 S3          N/A
EWING            N/A     67  63  88 CALM        N/A
$$

...OBSERVATIONS IN SOUTHWEST NEBRASKA AND FAR NORTHEAST COLORADO...

CITY           SKY/WX    TMP DP  RH WIND       PRES   REMARKS
WRAY           FAIR      69  56  65 SW8       30.11S
HOLYOKE        FAIR      72  61  68 S7        30.11S
IMPERIAL       CLEAR     69  58  67 W3        30.07S
OGALLALA       CLEAR     65  59  79 CALM      30.07S
NORTH PLATTE   CLEAR     69  62  78 CALM      30.05R
MCCOOK         CLEAR     75  59  57 S3        30.03R
LEXINGTON      CLEAR     70  64  81 CALM      30.02F
PAXTON           N/A     70  62  74 CALM        N/A
GOTHENBURG       N/A     73  60  64 CALM        N/A
CALLAWAY         N/A     64  60  87 CALM        N/A
$$

...NORTH PLATTE AREA...

CITY           SKY/WX    TMP DP  RH WIND       PRES   REMARKS
AIRPORT        CLEAR     69  62  78 CALM      30.05R
DOWNTOWN         N/A     74  64  70 CALM        N/A
HILLCREST        N/A     73  61  67 E7          N/A
$$

...SOME WEATHER OBSERVATIONS FROM AROUND THE REGION...

CITY           SKY/WX    TMP DP  RH WIND       PRES   REMARKS
DENVER         PTCLDY    66  54  65 S10       30.23S
LARAMIE        CLEAR     61  43  51 S8        30.36S
CHEYENNE       CLEAR     64  49  57 W9        30.28R
SCOTTSBLUFF    CLEAR     68  57  68 E7        30.12S
RAPID CITY     CLEAR     66  61  84 NW3       30.03S
PIERRE         LGT RAIN  73  60  63 CALM      29.91S
WINNER         FAIR      74  55  51 S7        29.96S
SIOUX FALLS    CLEAR     68  63  84 NW7       29.92R
OMAHA          CLOUDY    71  64  78 CALM      29.91F
GRAND ISLAND   CLEAR     70  62  76 SE5       29.99S
KANSAS CITY    MOCLDY    76  63  64 NW5       29.93S
WICHITA        PTCLDY    72  61  68 S5        29.98S
HAYS           PTCLDY    73  52  46 E9        30.01S
LIBERAL        CLEAR     73  59  60 CALM        N/A
GOODLAND       CLEAR     70  56  61 SW9       30.10S
$$



USA.gov is the U.S. government's official web portal to all federal, state and local government web resources and services.